Location: Kershaw
(34.5481°N, 80.5823°W)
Time: 15:05:08
(UTC+00:00)

Courier 1B Rocket - Pass Details

Date: 03 October 2022
Orbit: 920 x 1202 km, 28.2° (Epoch: 08 December)

Event Time Altitude Azimuth Distance (km) Brightness Sun altitude
Rises 01:39:09 0° 254° (WSW) 3,700 8.8 -32.1°
Reaches altitude 10° 01:41:58 10° 249° (WSW) 2,712 7.8 -32.7°
Enters shadow 01:46:04 36° 224° (SW) 1,467 6.0 -33.5°
Maximum altitude 01:48:10 48° 177° (S) 1,206 - -33.9°
Drops below altitude 10° 01:54:08 10° 104° (ESE) 2,609 - -35.0°
Sets 01:56:48 0° 99° (E) 3,546 - -35.5°
